TimeCDT,TemperatureF,Dew PointF,Humidity,Sea Level PressureIn,VisibilityMPH,Wind Direction,Wind SpeedMPH,Gust SpeedMPH,PrecipitationIn,Events,Conditions,WindDirDegrees,DateUTC
12:53 AM,73.9,43.0,33,29.97,10.0,SSW,17.3,24.2,N/A,,Clear,200,2011-10-04 05:53:00
1:53 AM,73.0,43.0,34,29.97,10.0,SSW,16.1,23.0,N/A,,Clear,210,2011-10-04 06:53:00
3:53 AM,71.1,43.0,36,29.96,10.0,SW,13.8,20.7,N/A,,Clear,220,2011-10-04 08:53:00
4:53 AM,69.1,42.1,38,29.97,10.0,SW,9.2,-,N/A,,Clear,220,2011-10-04 09:53:00
6:53 AM,68.0,41.0,37,29.98,10.0,WSW,9.2,-,N/A,,Clear,240,2011-10-04 11:53:00
7:53 AM,66.0,41.0,40,30.01,10.0,West,8.1,-,N/A,,Clear,270,2011-10-04 12:53:00
8:53 AM,69.1,42.1,38,30.02,10.0,WSW,8.1,-,N/A,,Clear,240,2011-10-04 13:53:00
9:53 AM,75.0,41.0,29,30.03,10.0,SW,12.7,19.6,N/A,,Clear,220,2011-10-04 14:53:00
10:53 AM,82.9,41.0,23,30.02,10.0,SW,20.7,27.6,N/A,,Clear,220,2011-10-04 15:53:00
11:53 AM,88.0,37.9,17,30.00,10.0,SSW,20.7,32.2,N/A,,Clear,200,2011-10-04 16:53:00
12:53 PM,90.0,36.0,15,29.98,10.0,SSW,23.0,33.4,N/A,,Clear,200,2011-10-04 17:53:00
1:53 PM,91.9,34.0,13,29.95,10.0,South,17.3,35.7,N/A,,Clear,190,2011-10-04 18:53:00
2:53 PM,91.9,33.1,12,29.93,10.0,South,24.2,34.5,N/A,,Clear,190,2011-10-04 19:53:00
3:53 PM,91.9,32.0,12,29.91,10.0,South,19.6,34.5,N/A,,Clear,180,2011-10-04 20:53:00
4:53 PM,91.0,34.0,13,29.91,10.0,South,25.3,32.2,N/A,,Clear,190,2011-10-04 21:53:00
5:53 PM,88.0,37.9,17,29.91,10.0,SSW,16.1,26.5,N/A,,Clear,200,2011-10-04 22:53:00
6:53 PM,84.9,37.9,19,29.91,9.0,South,17.3,24.2,N/A,,Clear,180,2011-10-04 23:53:00
7:53 PM,80.1,39.0,23,29.94,10.0,SSE,11.5,-,N/A,,Clear,160,2011-10-05 00:53:00
8:53 PM,77.0,39.0,25,29.95,10.0,SSE,15.0,-,N/A,,Clear,160,2011-10-05 01:53:00
9:53 PM,73.0,39.9,30,29.96,10.0,SSE,12.7,-,N/A,,Clear,160,2011-10-05 02:53:00
10:53 PM,71.1,39.9,32,29.97,10.0,SSE,15.0,21.9,N/A,,Clear,160,2011-10-05 03:53:00
11:53 PM,70.0,39.9,33,29.96,10.0,SSE,13.8,23.0,N/A,,Clear,160,2011-10-05 04:53:00